記事タイトル:Comet C/2004 V4 (NEAT) 

最新の情報は「更新」や「再読み込み」ボタンを押してリロードしてご覧ください。

書き込み欄へ  ヘルプ
お名前: 佐藤 裕久   
11月5.5日UT、K. J. Lawrence (Jet推進研究所)はPalomarの1.2-m Schmidt 望遠鏡で得たNEAT
の画像から彗星を発見した。少し拡散状で尾はない。
直ちにNEO Confirmation PageにABDOYAKとして掲載された。11月6.7日UT、R. H. McNaughtは
Siding Springの1.0-m反射で得た画像から少し拡散状で核の集光とた。p.a. 280°を真中にして
40″の扇型の尾を確認した。

発見位置は次のとおり、


     2004 UT             R.A. (2000) Decl.       Mag.
     Nov.  5.45377    4 22 36.96   + 3 39 28.3   18.8

暫定放物線軌道要素と位置推算表は次のとおり、

Orbital elements:
    C/2004 V4 (NEAT)
T 2005 Mar. 3.054 TT                                    MPC
q   1.27183              (2000.0)            P               Q
                   Peri.   42.667       -0.637535       -0.713424
                   Node    89.156       +0.604910       -0.697306
e   1.0            Incl.   16.909       +0.477108       -0.069220
From 15 observations 2004 Nov. 5-6.

Ephemeris:
    C/2004 V4 (NEAT)
Date    TT    R. A. (2000) Decl.     Delta      r     Elong.  Phase   m1
2004 11 01    04 24.24   +03 39.7    1.255    2.166   148.9    13.7  18.4
2004 11 11    04 19.72   +03 44.3    1.112    2.061   157.3    10.7  17.9
2004 11 21    04 12.09   +04 12.3    0.990    1.957   163.1     8.4  17.4
2004 12 01    04 01.88   +05 14.4    0.892    1.855   162.1     9.4  16.9
2004 12 11    03 50.22   +06 59.7    0.816    1.757   154.4    14.0  16.5
2004 12 21    03 38.94   +09 34.0    0.762    1.663   144.2    20.3  16.1

(IAUC 8429, MPEC 2004-V34)
[2004年11月7日 9時18分1秒]

この記事への返信をどうぞ。 自動改行されませんので、適当に改行を入れてください。
氏名
E-mail URL



記事一覧に戻る